• In Romania
  • List of Countries
  • For 7 days
  • Water Temperature
  • Satellite Maps
  • Weather Map
  • Weather Widgets
  • user-avatar
    Login

    Hourly Weather Townsville

    Today, 19 January, Friday

    Time Temperature Precipitation Wind Pressure Humidity
    00:00 +24°C° 0 mm 6 mps 753 mmHg 83%
    01:00 +25°C° 0 mm 5 mps 753 mmHg 85%
    02:00 +25°C° 0 mm 5 mps 753 mmHg 86%
    03:00 +23°C° 0 mm 5 mps 752 mmHg 88%
    04:00 +23°C° 0 mm 5 mps 752 mmHg 90%
    05:00 +23°C° 0 mm 5 mps 752 mmHg 89%
    06:00 +25°C° 0 mm 5 mps 752 mmHg 88%
    07:00 +25°C° 0 mm 5 mps 753 mmHg 87%
    08:00 +27°C° 0 mm 5 mps 753 mmHg 77%
    09:00 +29°C° 0 mm 5 mps 753 mmHg 68%
    10:00 +30°C° 0 mm 5 mps 753 mmHg 59%
    11:00 +32°C° 0 mm 5 mps 752 mmHg 54%
    12:00 +34°C° 0 mm 5 mps 752 mmHg 50%
    13:00 +35°C° 0 mm 6 mps 751 mmHg 46%
    14:00 +34°C° 0 mm 6 mps 751 mmHg 47%
    15:00 +34°C° 0 mm 6 mps 750 mmHg 49%
    16:00 +33°C° 0 mm 6 mps 750 mmHg 51%
    17:00 +32°C° 0 mm 6 mps 750 mmHg 58%
    18:00 +29°C° 0 mm 5 mps 750 mmHg 66%
    19:00 +27°C° 0 mm 5 mps 751 mmHg 74%
    20:00 +27°C° 0 mm 5 mps 751 mmHg 77%
    21:00 +26°C° 0 mm 5 mps 751 mmHg 80%
    22:00 +25°C° 0 mm 5 mps 752 mmHg 83%
    23:00 +25°C° 0 mm 4 mps 751 mmHg 86%

    Tomorrow, 20 January, Saturday

    Time Temperature Precipitation Wind Pressure Humidity
    00:00 +25°C° 0 mm 4 mps 751 mmHg 88%
    01:00 +23°C° 0 mm 4 mps 751 mmHg 90%
    02:00 +23°C° 0 mm 4 mps 750 mmHg 91%
    03:00 +23°C° 0 mm 4 mps 750 mmHg 92%
    04:00 +22°C° 0 mm 4 mps 750 mmHg 94%
    05:00 +23°C° 0 mm 4 mps 750 mmHg 92%
    06:00 +23°C° 0 mm 4 mps 751 mmHg 90%
    07:00 +25°C° 0 mm 4 mps 751 mmHg 88%
    08:00 +27°C° 0 mm 4 mps 751 mmHg 77%
    09:00 +29°C° 0 mm 4 mps 751 mmHg 67%
    10:00 +32°C° 0 mm 4 mps 751 mmHg 56%
    11:00 +33°C° 0 mm 4 mps 750 mmHg 52%
    12:00 +34°C° 0 mm 5 mps 750 mmHg 48%
    13:00 +35°C° 0 mm 5 mps 749 mmHg 45%
    14:00 +34°C° 0 mm 5 mps 749 mmHg 46%
    15:00 +33°C° 0 mm 5 mps 748 mmHg 48%
    16:00 +33°C° 0 mm 5 mps 748 mmHg 49%
    17:00 +30°C° 0 mm 4 mps 748 mmHg 58%
    18:00 +29°C° 0 mm 4 mps 749 mmHg 66%
    19:00 +27°C° 0 mm 3 mps 749 mmHg 75%
    20:00 +27°C° 0 mm 4 mps 750 mmHg 77%
    21:00 +26°C° 0 mm 4 mps 750 mmHg 79%
    22:00 +26°C° 0 mm 4 mps 751 mmHg 81%
    23:00 +26°C° 0 mm 4 mps 750 mmHg 82%

    Day after tomorrow, 21 January, Sunday

    Time Temperature Precipitation Wind Pressure Humidity
    00:00 +26°C° 0 mm 4 mps 750 mmHg 83%
    01:00 +26°C° 0 mm 3 mps 750 mmHg 84%
    02:00 +26°C° 0 mm 3 mps 749 mmHg 85%
    03:00 +26°C° 0 mm 3 mps 749 mmHg 86%
    04:00 +26°C° 0 mm 3 mps 748 mmHg 87%
    05:00 +26°C° 0 mm 3 mps 749 mmHg 87%
    06:00 +26°C° 0 mm 3 mps 749 mmHg 87%
    07:00 +26°C° 0 mm 4 mps 750 mmHg 87%
    08:00 +27°C° 0 mm 4 mps 750 mmHg 80%
    09:00 +29°C° 0 mm 4 mps 750 mmHg 74%
    10:00 +30°C° 0 mm 5 mps 750 mmHg 67%
    11:00 +32°C° 0 mm 5 mps 750 mmHg 62%
    12:00 +33°C° 0 mm 6 mps 749 mmHg 57%
    13:00 +34°C° 0 mm 6 mps 749 mmHg 52%
    14:00 +33°C° 0 mm 6 mps 748 mmHg 54%
    15:00 +33°C° 0 mm 5 mps 748 mmHg 56%
    16:00 +32°C° 0 mm 5 mps 748 mmHg 58%
    17:00 +30°C° 0.1 mm 5 mps 748 mmHg 65%
    18:00 +28°C° 0.1 mm 5 mps 749 mmHg 71%
    19:00 +27°C° 0.1 mm 5 mps 749 mmHg 77%
    20:00 +27°C° 0.1 mm 5 mps 749 mmHg 79%
    21:00 +26°C° 0.1 mm 6 mps 750 mmHg 82%
    22:00 +26°C° 0.1 mm 6 mps 750 mmHg 84%
    23:00 +26°C° 0.4 mm 6 mps 750 mmHg 86%

    22 January, Monday

    Time Temperature Precipitation Wind Pressure Humidity
    00:00 +25°C° 0.4 mm 5 mps 750 mmHg 88%
    01:00 +25°C° 0.4 mm 5 mps 750 mmHg 89%
    02:00 +25°C° 0.4 mm 5 mps 749 mmHg 90%
    03:00 +23°C° 0.4 mm 4 mps 749 mmHg 90%
    04:00 +23°C° 0.4 mm 4 mps 749 mmHg 90%
    05:00 +23°C° 0.4 mm 4 mps 749 mmHg 90%
    06:00 +23°C° 0.4 mm 4 mps 749 mmHg 91%
    07:00 +23°C° 0.4 mm 5 mps 750 mmHg 91%
    08:00 +23°C° 0.9 mm 4 mps 750 mmHg 92%
    09:00 +23°C° 0.9 mm 4 mps 750 mmHg 92%
    10:00 +25°C° 0.9 mm 4 mps 750 mmHg 93%
    11:00 +25°C° 1.2 mm 4 mps 750 mmHg 92%
    12:00 +25°C° 1.2 mm 4 mps 749 mmHg 92%
    13:00 +25°C° 1.2 mm 4 mps 749 mmHg 92%
    14:00 +26°C° 0.4 mm 4 mps 749 mmHg 91%
    15:00 +26°C° 0.4 mm 4 mps 748 mmHg 91%
    16:00 +26°C° 0.4 mm 5 mps 748 mmHg 90%
    17:00 +26°C° 0.4 mm 4 mps 748 mmHg 92%
    18:00 +25°C° 0.4 mm 4 mps 749 mmHg 94%
    19:00 +25°C° 0.4 mm 4 mps 749 mmHg 96%
    20:00 +25°C° 0.3 mm 4 mps 750 mmHg 96%
    21:00 +25°C° 0.3 mm 4 mps 750 mmHg 96%
    22:00 +25°C° 0.3 mm 4 mps 750 mmHg 97%
    23:00 +25°C° 0.2 mm 4 mps 750 mmHg 97%

    23 January, Tuesday

    Time Temperature Precipitation Wind Pressure Humidity
    00:00 +25°C° 0.2 mm 4 mps 749 mmHg 97%
    01:00 +25°C° 0.2 mm 4 mps 749 mmHg 97%
    02:00 +25°C° 0.2 mm 4 mps 748 mmHg 97%
    03:00 +25°C° 0.2 mm 4 mps 748 mmHg 97%
    04:00 +25°C° 0.2 mm 4 mps 747 mmHg 97%
    05:00 +25°C° 1 mm 4 mps 748 mmHg 97%
    06:00 +25°C° 1 mm 4 mps 748 mmHg 96%
    07:00 +25°C° 1 mm 4 mps 749 mmHg 96%
    08:00 +26°C° 2.3 mm 4 mps 749 mmHg 95%
    09:00 +26°C° 2.3 mm 4 mps 749 mmHg 93%
    10:00 +27°C° 2.3 mm 4 mps 749 mmHg 92%
    11:00 +27°C° 2.9 mm 4 mps 749 mmHg 92%
    12:00 +27°C° 2.9 mm 3 mps 748 mmHg 92%
    13:00 +27°C° 2.9 mm 3 mps 748 mmHg 93%
    14:00 +27°C° 1.7 mm 3 mps 748 mmHg 92%
    15:00 +27°C° 1.7 mm 3 mps 747 mmHg 92%
    16:00 +28°C° 1.7 mm 3 mps 747 mmHg 92%
    17:00 +27°C° 1.2 mm 3 mps 748 mmHg 94%
    18:00 +27°C° 1.2 mm 3 mps 748 mmHg 96%
    19:00 +26°C° 1.2 mm 3 mps 748 mmHg 97%
    20:00 +26°C° 1.1 mm 3 mps 749 mmHg 98%
    21:00 +26°C° 1.1 mm 3 mps 749 mmHg 98%
    22:00 +26°C° 1.1 mm 3 mps 749 mmHg 98%
    23:00 +26°C° 1.9 mm 3 mps 748 mmHg 98%

    24 January, Wednesday

    Time Temperature Precipitation Wind Pressure Humidity
    00:00 +26°C° 1.9 mm 3 mps 748 mmHg 98%
    01:00 +26°C° 1.9 mm 3 mps 747 mmHg 98%
    02:00 +26°C° 2.4 mm 3 mps 747 mmHg 98%
    03:00 +26°C° 2.4 mm 2 mps 747 mmHg 98%
    04:00 +26°C° 2.4 mm 2 mps 747 mmHg 98%
    05:00 +26°C° 2.2 mm 2 mps 747 mmHg 98%
    06:00 +26°C° 2.2 mm 2 mps 748 mmHg 98%
    07:00 +26°C° 2.2 mm 2 mps 748 mmHg 98%
    08:00 +26°C° 0.8 mm 2 mps 748 mmHg 97%
    09:00 +26°C° 0.8 mm 3 mps 748 mmHg 96%
    10:00 +27°C° 0.8 mm 3 mps 748 mmHg 95%
    11:00 +27°C° 0.4 mm 3 mps 747 mmHg 93%
    12:00 +27°C° 0.4 mm 3 mps 747 mmHg 92%
    13:00 +28°C° 0.4 mm 3 mps 746 mmHg 90%
    14:00 +28°C° 0.1 mm 4 mps 746 mmHg 88%
    15:00 +29°C° 0.1 mm 4 mps 745 mmHg 86%
    16:00 +29°C° 0.1 mm 5 mps 745 mmHg 84%
    17:00 +28°C° 0.9 mm 5 mps 746 mmHg 87%
    18:00 +27°C° 0.9 mm 4 mps 746 mmHg 91%
    19:00 +27°C° 0.9 mm 4 mps 746 mmHg 95%
    20:00 +27°C° 1.9 mm 4 mps 747 mmHg 95%
    21:00 +27°C° 1.9 mm 4 mps 747 mmHg 96%
    22:00 +26°C° 1.9 mm 3 mps 747 mmHg 97%
    23:00 +26°C° 2.3 mm 3 mps 747 mmHg 97%
    Show more